CAPE
1 2 2 1 1 1 2 3 1 1 1 1 0 0 1 0 0 0 0 0 0 0 0 0 0 0 nan 5 3 3 5 7 7 7 5 5 5 5 4 3 3 2 0 0 0 0 0 0 0 0 0 0 0 0 0 0 0 0 1 2 2 3 4 5 5 5 4 2 nan nan nan nan nan nan nan nan nan nan nan nan nan nan nan nan nan nan
2 1 3 4 4 3 2 3 1 1 0 0 0 0 0 0 0 0 0 0 0 0 0 0 0 0 nan 1 3 3 3 5 7 7 6 6 5 5 5 3 3 2 2 1 1 0 1 1 1 1 nan nan nan nan nan nan nan nan nan nan nan 0 0 1 1 1 1 nan nan nan nan nan nan nan nan nan nan nan nan nan nan nan nan nan nan nan
1 2 2 3 3 1 1 2 1 1 1 0 0 0 0 1 1 1 1 0 0 nan nan 0 0 nan nan nan 3 3 4 4 6 6 8 8 7 7 5 4 4 3 3 2 2 2 2 1 1 0 nan nan nan nan nan nan nan nan nan nan nan nan nan nan nan nan nan nan nan nan nan nan nan nan nan nan nan nan nan nan nan nan nan nan nan nan
2 1 1 0 0 0 nan 0 1 1 nan 0 1 1 1 0 1 1 1 0 0 nan nan nan nan nan nan nan nan nan 5 6 7 7 7 7 6 6 4 4 4 3 4 3 3 2 2 2 2 1 nan nan nan nan nan nan nan nan nan nan nan nan nan nan nan nan nan nan nan nan nan nan nan nan nan nan nan nan nan nan nan nan nan nan nan nan
2 0 1 0 0 0 nan 0 0 0 0 0 0 0 0 0 0 0 1 0 0 nan nan nan nan nan nan nan nan nan 5 8 7 7 6 5 5 5 3 3 3 4 4 4 4 3 2 1 1 0 nan nan nan nan nan nan nan nan nan nan nan nan nan nan nan nan nan nan nan nan nan nan nan nan nan nan nan nan nan nan nan nan nan nan nan nan
2 1 1 0 0 0 1 0 0 0 0 0 0 0 nan 0 0 0 0 0 0 nan nan nan nan nan nan nan nan nan 2 8 6 6 5 4 4 4 3 4 4 5 3 2 2 1 0 0 0 nan nan nan nan nan nan nan nan nan nan nan nan nan nan nan nan nan nan nan nan nan nan nan nan nan nan nan nan nan nan nan nan nan nan nan nan nan
2 0 0 0 0 0 1 0 0 0 0 0 0 0 0 0 0 0 0 0 0 0 nan nan nan nan nan nan nan nan 1 6 5 5 5 5 5 5 5 4 4 4 2 1 1 0 nan nan nan nan nan nan nan nan nan nan nan nan nan nan nan nan nan nan nan nan nan nan nan nan nan nan nan nan nan nan nan nan nan nan nan nan nan nan nan nan
nan 0 0 0 0 0 0 1 0 0 nan 1 1 1 1 0 0 0 nan nan nan nan nan nan nan nan nan nan nan nan nan nan nan nan 0 3 4 4 2 1 1 nan nan nan nan nan nan nan nan nan nan nan nan nan nan nan nan nan nan nan nan nan nan nan nan nan nan nan nan nan nan nan nan nan nan nan nan nan nan nan nan nan nan nan nan nan
0 1 1 nan nan nan 0 0 0 0 nan nan 0 0 0 0 0 0 nan nan nan nan nan nan nan nan nan nan nan nan nan nan nan nan nan nan nan nan 0 nan nan nan nan nan nan nan nan nan nan nan nan nan nan nan nan nan nan nan nan nan nan nan nan nan nan nan nan nan nan nan nan nan nan nan nan nan nan nan nan nan nan nan nan nan nan nan
1 1 0 nan nan nan 1 0 0 0 nan nan nan nan nan 1 1 1 1 nan nan nan nan nan nan nan nan nan nan nan nan nan nan nan nan nan nan nan nan nan nan nan nan nan nan nan nan nan nan nan nan nan nan nan nan nan nan nan nan nan nan nan nan nan nan nan nan nan nan nan nan nan nan nan nan nan nan nan nan nan nan nan nan nan nan nan
0 2 1 nan nan 0 nan nan nan nan nan 0 0 0 nan nan 3 3 1 nan nan nan nan nan nan nan nan nan nan nan nan nan nan nan nan nan nan nan nan nan nan nan nan nan nan nan nan nan nan nan nan nan nan nan nan nan nan nan nan nan nan nan nan nan nan nan nan nan nan nan nan nan nan nan nan nan nan nan nan nan nan nan nan nan nan nan
1 1 1 0 0 nan nan nan nan nan 0 2 1 1 nan nan nan nan 0 nan nan nan nan nan nan nan nan nan nan nan nan nan nan nan nan nan nan nan nan nan nan nan nan nan nan nan nan nan nan nan nan nan nan nan nan nan nan nan nan nan nan nan nan nan nan nan nan nan nan nan nan nan nan nan nan nan nan nan nan nan nan nan nan nan nan nan
0 nan 0 0 0 nan nan nan 0 0 1 2 0 0 0 nan nan nan nan nan nan nan nan nan nan nan nan nan nan nan nan nan nan nan nan nan nan nan nan nan nan nan nan nan nan nan nan nan nan nan nan nan nan nan nan nan nan nan nan nan nan nan nan nan nan nan nan nan nan nan nan nan nan nan nan nan nan nan nan nan nan nan nan nan nan nan
nan nan 1 0 0 nan nan nan nan nan 1 nan nan nan nan nan nan nan nan nan nan nan nan nan nan nan nan nan nan nan nan nan nan nan nan nan nan nan nan nan nan nan nan nan nan nan nan nan nan nan nan nan nan nan nan nan nan nan nan nan nan nan nan nan nan nan nan nan nan nan nan nan nan nan 0 nan 0 0 nan nan nan nan nan nan nan nan
nan nan 0 1 1 0 nan nan nan nan nan nan nan nan nan nan nan nan nan nan nan nan nan nan nan nan nan nan nan nan nan nan nan nan nan nan nan nan nan nan nan nan nan nan nan nan nan nan nan nan nan nan nan nan nan nan nan nan nan nan nan nan nan nan nan nan nan nan nan nan nan 0 0 0 0 0 0 0 0 nan nan nan nan nan nan nan
nan nan nan nan nan 0 nan nan nan nan nan nan nan nan nan nan nan nan nan nan nan nan nan nan nan nan nan nan nan nan nan nan nan nan nan nan nan nan nan nan nan nan nan nan nan nan nan nan nan nan nan nan nan nan nan nan nan nan nan nan nan nan nan nan nan nan nan nan nan nan nan 0 0 0 0 0 0 0 0 nan nan nan nan nan nan nan
nan nan nan nan nan nan nan nan nan nan nan nan nan nan nan nan nan nan nan nan nan nan nan nan nan 0 nan nan nan nan nan nan nan nan nan nan nan nan nan nan nan nan nan nan nan nan nan nan nan nan nan nan nan nan nan nan nan nan nan nan nan nan nan nan nan nan nan nan nan nan nan nan 0 0 0 0 0 0 0 0 0 nan nan nan nan nan
nan nan nan nan nan nan nan nan nan nan nan nan nan nan nan nan nan nan nan nan nan nan nan nan nan nan nan nan nan nan nan nan nan nan nan nan nan nan nan nan nan nan nan nan nan nan nan nan nan nan nan nan nan nan nan nan nan nan nan nan nan nan nan nan nan nan nan nan nan nan nan nan nan nan nan 0 0 0 1 0 0 nan 0 2 2 4
nan nan nan nan nan nan nan nan nan nan nan nan nan nan nan nan nan nan nan nan nan nan nan nan nan nan nan nan nan nan nan nan nan nan nan nan nan nan nan nan nan nan nan nan nan nan nan nan nan nan nan nan nan nan nan nan nan nan nan nan nan nan nan 0 0 0 nan nan nan nan 0 0 nan nan nan nan 0 0 2 2 2 0 3 9 9 12
nan nan nan nan nan nan nan nan nan nan nan nan nan nan nan nan nan nan nan nan nan nan nan nan nan nan nan nan nan nan nan nan nan nan nan nan nan nan nan nan nan nan nan nan nan nan nan nan nan nan nan nan nan nan nan nan nan nan nan nan nan nan nan 0 0 0 nan nan nan nan 0 0 0 0 0 0 0 0 3 3 3 3 3 4 4 5
nan nan nan nan nan nan nan nan nan nan nan nan nan nan nan nan nan nan nan nan nan nan nan nan nan nan nan nan nan nan nan nan nan nan nan nan nan nan nan nan nan nan nan nan nan nan nan nan nan nan nan nan nan nan nan nan nan nan nan nan nan nan 0 0 0 0 nan nan 0 0 0 0 0 0 1 1 1 1 2 2 2 3 3 2 2 1
nan nan nan nan nan nan nan nan nan nan nan nan nan nan nan nan nan nan nan nan nan nan nan nan nan nan nan nan nan nan nan nan nan nan nan nan nan nan nan nan nan nan nan nan nan nan nan nan nan nan nan nan nan nan nan nan nan nan nan nan nan nan 0 0 0 0 0 0 0 0 1 1 1 1 1 1 1 1 2 2 2 2 2 2 2 1
nan nan nan nan nan nan nan nan nan nan nan nan nan nan nan nan nan nan nan nan nan nan nan nan nan nan nan nan nan nan nan nan nan nan nan nan nan nan nan nan nan nan nan nan nan nan nan nan nan nan nan nan nan nan nan nan nan nan nan nan nan 0 1 1 1 0 0 0 1 1 1 2 2 2 2 2 2 2 2 1 1 1 1 2 2 1
nan nan nan nan nan nan nan nan nan nan nan nan nan nan nan nan nan nan nan nan nan nan nan nan nan nan nan nan nan nan nan nan nan nan nan nan nan nan nan nan nan nan nan nan nan nan nan nan nan nan nan nan nan nan nan nan nan nan nan nan nan 1 1 1 1 0 0 0 1 1 2 4 4 4 5 5 4 4 4 3 3 2 2 1 1 2
nan nan nan nan nan nan nan nan nan nan nan nan nan nan nan nan nan nan nan nan nan nan nan nan nan nan nan nan nan nan nan nan nan nan nan nan nan nan nan nan nan nan nan nan nan nan nan nan nan nan nan nan nan nan nan nan nan nan nan 1 1 1 1 1 1 0 0 1 1 1 2 2 3 3 5 6 6 6 7 6 6 7 4 3 3 3
nan nan nan nan nan nan nan nan nan nan nan nan nan nan nan nan nan nan nan nan nan nan nan nan nan nan nan nan nan nan nan nan nan nan nan nan nan nan nan nan nan nan nan nan nan nan nan nan nan nan nan nan nan nan nan nan nan nan 0 2 2 2 1 0 0 0 nan nan 0 0 1 2 2 2 3 5 5 5 7 7 7 7 6 6 6 6
nan nan nan nan nan nan nan nan nan nan nan nan nan nan nan nan nan nan nan nan nan nan nan nan nan nan nan nan nan nan nan nan nan nan nan nan nan nan nan nan nan nan nan nan nan nan nan nan nan nan nan nan nan nan nan nan nan 0 3 2 2 1 0 nan nan nan nan nan nan nan 0 1 2 2 3 4 4 4 5 6 6 6 6 7 7 8
nan nan nan nan nan nan nan nan nan nan nan nan nan nan nan nan nan nan nan nan nan nan nan nan nan nan nan nan nan nan nan nan nan nan nan nan nan nan nan nan nan nan nan nan nan nan nan nan nan nan nan nan nan nan nan nan nan nan 1 1 1 0 nan nan nan nan nan nan nan nan 0 2 2 2 2 3 4 4 4 5 5 5 6 7 7 14
nan nan nan nan nan 0 0 0 nan nan nan nan nan nan nan nan nan nan nan nan nan nan nan nan nan nan nan nan nan nan nan nan nan nan nan nan nan nan nan nan nan nan nan nan nan nan nan nan nan nan nan nan nan nan nan nan nan nan nan nan nan nan nan nan nan nan nan nan nan nan nan 2 3 3 3 4 4 4 4 5 5 5 4 6 6 7
nan 0 0 1 1 0 0 nan nan nan nan nan nan nan nan nan nan nan nan nan nan nan nan nan nan nan nan nan nan nan nan nan nan nan nan nan nan nan nan nan nan nan nan nan nan nan nan nan nan nan nan nan nan nan nan nan nan nan nan nan nan nan nan nan nan nan nan nan nan nan nan 1 3 3 4 4 4 4 4 5 5 4 4 4 4 3
nan nan nan nan nan nan nan 1 nan nan nan nan nan nan nan nan nan nan nan nan nan nan nan nan nan nan nan nan nan nan nan nan nan nan nan nan nan nan nan nan nan nan nan nan nan nan nan nan nan nan nan nan nan nan nan nan nan nan nan nan nan nan nan nan nan nan nan nan nan nan nan nan 1 1 3 4 5 5 5 5 5 5 7 9 9 4
nan nan nan nan nan nan nan nan nan nan nan nan nan nan nan nan nan nan nan nan nan nan nan nan nan nan nan nan nan nan nan nan nan nan nan nan nan nan nan nan nan nan nan nan nan nan nan nan nan nan nan nan nan nan nan nan nan nan nan nan nan nan nan nan nan nan nan nan nan nan nan nan nan nan nan 0 1 1 3 3 3 3 6 5 5 3
nan nan nan nan nan nan nan nan nan nan nan nan nan nan nan nan nan nan nan nan nan nan nan nan nan nan nan nan nan nan nan nan nan nan nan nan nan nan nan nan nan nan nan nan nan nan nan nan nan nan nan nan nan nan nan nan nan nan nan nan nan nan nan nan nan nan nan nan nan nan nan nan nan nan nan nan 0 0 1 2 2 3 4 2 2 4
nan nan nan nan nan nan nan nan nan nan nan nan nan nan nan nan nan nan nan nan nan nan nan nan nan nan nan nan nan nan nan nan nan nan nan nan nan nan nan nan nan nan nan nan nan nan nan nan nan nan nan nan nan nan nan nan nan nan nan nan nan nan nan nan nan nan nan nan nan nan nan nan nan nan nan nan nan nan 1 2 2 4 5 4 4 7
nan nan nan nan nan nan nan nan nan nan nan nan nan nan nan nan nan nan nan nan nan nan nan nan nan nan nan nan nan nan nan nan nan nan nan nan nan nan nan nan nan nan nan nan nan nan nan nan nan nan nan nan nan nan nan nan nan nan nan nan nan nan nan nan nan nan nan nan nan nan nan nan nan nan nan nan 0 0 1 1 1 3 4 8 8 8
nan nan nan nan nan nan nan nan nan nan nan nan nan nan nan nan nan nan nan nan nan nan nan nan nan nan nan nan nan nan nan nan nan nan nan nan nan nan nan nan nan nan nan nan nan nan nan nan nan nan nan nan nan nan nan nan nan nan nan nan nan nan nan nan nan nan nan nan nan nan nan nan nan nan nan nan nan nan nan nan nan nan 1 3 3 4
nan nan nan nan nan nan nan nan nan nan nan nan nan nan nan nan nan nan nan nan nan nan nan nan nan nan nan nan nan nan nan nan nan nan nan nan nan nan nan nan nan nan nan nan nan nan nan nan nan nan nan nan nan nan nan nan nan nan nan nan nan nan nan nan nan nan nan nan nan nan nan nan nan nan nan nan nan nan nan nan nan nan nan nan nan nan
nan nan nan nan nan nan nan nan nan nan nan nan nan nan nan nan nan nan nan nan nan nan nan nan nan nan nan nan nan nan nan nan nan nan nan nan nan nan nan nan nan nan nan nan nan nan nan nan nan nan nan nan nan nan nan nan nan nan nan nan nan nan nan nan nan nan nan nan nan nan nan nan nan nan nan nan nan nan nan nan nan nan nan nan nan nan
nan nan nan nan nan nan nan nan nan nan nan nan nan nan nan nan nan nan nan nan nan nan nan nan nan nan nan nan nan nan nan nan nan nan nan nan nan nan nan nan nan nan nan nan nan nan nan nan nan nan nan nan nan nan nan nan nan nan nan nan nan nan nan nan nan nan nan nan nan nan nan nan nan nan nan nan nan nan nan nan nan nan nan nan nan nan
nan nan nan nan nan nan nan nan nan nan nan nan nan nan nan nan nan nan nan nan nan nan nan nan nan nan nan nan nan nan nan nan nan nan nan 0 nan nan nan nan nan nan nan nan nan nan nan nan nan nan nan nan nan nan nan nan nan nan nan nan nan nan nan nan nan nan nan nan nan nan nan nan nan nan nan nan nan nan nan nan nan nan nan nan nan nan
nan nan nan nan nan nan nan nan nan nan nan nan nan nan nan nan nan nan nan nan nan nan nan nan nan nan nan nan nan nan nan nan nan nan nan nan nan nan nan nan nan nan nan nan nan nan nan nan nan nan nan nan nan nan nan nan nan nan nan nan nan nan nan nan nan nan nan nan nan nan nan nan nan nan nan nan nan nan nan nan nan nan nan nan nan nan
nan nan nan nan nan nan nan nan nan nan nan nan nan nan nan nan nan nan nan nan nan nan nan nan nan nan nan nan nan nan nan nan nan nan nan nan nan nan nan nan nan nan nan nan nan nan nan nan nan nan nan nan nan nan nan nan nan nan nan nan nan nan nan nan nan nan nan nan nan nan nan nan nan nan nan nan nan nan nan nan nan nan nan nan nan nan
nan nan nan nan nan nan nan nan nan nan nan nan nan nan nan nan nan nan nan nan nan nan nan nan nan nan nan nan nan nan nan nan nan nan nan nan nan nan nan nan nan nan nan nan nan nan nan nan nan nan nan nan nan nan nan nan nan nan nan nan nan nan nan nan nan nan nan nan nan nan nan nan nan nan nan nan nan nan nan nan nan nan nan nan nan nan
nan nan nan nan nan nan nan nan nan nan nan nan nan nan nan nan nan nan nan nan nan nan nan nan nan nan nan nan nan nan nan nan nan nan nan nan nan nan nan nan nan nan nan nan nan nan nan nan nan nan nan nan nan nan nan nan nan nan nan nan nan nan nan nan nan nan nan nan nan nan nan nan nan nan nan nan nan nan nan nan nan nan nan nan nan nan
nan nan nan nan nan nan nan nan nan nan nan nan nan nan nan nan nan nan nan nan nan nan nan nan nan nan nan nan nan nan nan nan nan nan nan nan 0 0 nan nan nan nan nan nan nan nan nan nan nan nan nan nan nan nan nan nan nan nan nan nan nan nan nan nan nan nan nan nan nan nan nan nan nan nan nan nan nan nan nan nan nan nan nan nan nan nan
nan nan nan nan nan nan nan nan nan nan nan nan nan nan nan nan nan nan nan nan nan nan nan nan nan nan nan nan nan nan nan nan nan nan nan nan nan nan nan nan nan nan nan nan nan nan nan nan nan nan nan nan nan nan nan nan nan nan nan nan nan nan nan nan nan nan nan nan nan nan nan nan nan nan nan nan nan nan nan nan nan nan nan nan nan nan
nan nan nan nan nan nan nan nan nan nan nan nan nan nan nan nan nan nan nan nan nan nan nan nan nan nan nan nan nan nan nan nan nan nan nan nan nan nan nan nan nan nan nan nan nan nan nan nan nan nan nan nan nan nan nan nan nan nan nan nan nan nan nan nan nan nan nan nan nan nan nan nan nan nan nan nan nan nan nan nan nan nan nan nan nan nan
nan nan nan nan nan nan nan nan nan nan nan nan nan nan nan nan nan nan nan nan nan nan nan nan nan nan nan nan nan nan nan nan nan nan nan nan nan nan nan nan nan nan nan nan nan nan nan nan nan nan nan nan nan nan nan nan nan nan nan nan nan nan nan nan nan nan nan nan nan nan nan nan nan nan nan nan nan nan nan nan nan nan nan nan nan nan
nan nan nan nan nan nan nan nan nan nan nan nan nan nan nan nan nan nan nan nan nan nan nan nan nan nan nan nan nan nan nan nan nan nan nan nan nan nan nan nan nan nan nan nan nan nan nan 0 0 nan nan nan nan nan nan nan nan nan nan nan nan nan nan nan nan nan nan nan nan nan nan nan nan nan nan nan nan nan nan nan nan nan nan nan nan nan
nan nan nan nan nan nan nan nan nan nan nan nan nan nan nan nan nan nan nan nan nan nan nan nan nan nan nan nan nan nan nan nan nan nan nan nan nan nan nan nan nan nan nan nan nan nan nan 0 0 1 0 nan nan nan nan nan nan nan nan nan nan nan nan nan nan nan nan nan nan nan nan nan nan nan nan nan nan nan nan nan nan nan nan nan nan nan
nan nan nan nan nan nan nan nan nan nan nan nan nan nan nan nan nan nan nan nan nan nan nan nan nan nan nan nan nan nan nan nan nan nan nan nan nan nan nan nan nan nan nan nan nan nan nan nan nan nan 0 4 0 0 nan nan nan nan nan nan nan nan nan nan nan nan nan nan nan nan nan nan nan nan nan 0 nan nan nan nan nan nan nan nan nan nan
CIN
-0 -0 -0 -0 -0 -0 -0 -0 -0 -0 -0 -0 -0 -0 -0 -0 -0 -0 -0 -0 -0 -0 -0 -0 -0 -0 nan -0 -0 -0 -0 -0 -0 -0 -0 -0 -0 -0 -0 -0 -0 -0 -0 -0 -0 -0 -0 -0 -0 -0 -0 -0 -0 -0 -0 -0 -0 -0 -0 -0 -0 -0 -0 -0 -0 -0 -0 -0 nan nan nan nan nan nan nan nan nan nan nan nan nan nan nan nan nan nan
-0 -0 -0 -0 -0 -0 -0 -0 -0 -0 -0 -0 -0 -0 -0 -0 -0 -0 -0 -0 -0 -0 -0 -0 -0 -0 nan -1 -0 -0 -0 -0 -0 -0 -0 -0 -0 -0 -0 -0 -0 -0 -0 -0 -0 -0 -0 -0 -0 -0 nan nan nan nan nan nan nan nan nan nan nan -0 -0 -0 -0 -0 -0 nan nan nan nan nan nan nan nan nan nan nan nan nan nan nan nan nan nan nan
-0 -0 -0 -0 -0 -0 -0 -0 -0 -0 -0 -0 -0 -0 -0 -0 -0 -0 -0 -0 -0 nan nan -0 -0 nan nan nan -0 -0 -0 -0 -0 -0 -0 -0 -0 -0 -0 -0 -0 -0 -0 -0 -0 -0 -0 -0 -0 -0 nan nan nan nan nan nan nan nan nan nan nan nan nan nan nan nan nan nan nan nan nan nan nan nan nan nan nan nan nan nan nan nan nan nan nan nan
-0 -0 -0 -0 -0 -0 nan -0 -0 -0 nan -0 -0 -0 -0 -0 -0 -0 -0 -0 -0 nan nan nan nan nan nan nan nan nan -0 -0 -0 -0 -0 -0 -0 -0 -0 -0 -0 -0 -0 -0 -0 -0 -0 -0 -0 -0 nan nan nan nan nan nan nan nan nan nan nan nan nan nan nan nan nan nan nan nan nan nan nan nan nan nan nan nan nan nan nan nan nan nan nan nan
-0 -0 -0 -0 -0 -0 nan -0 -0 -0 -0 -0 -0 -0 -0 -0 -0 -0 -0 -0 -0 nan nan nan nan nan nan nan nan nan -1 -0 -0 -0 -0 -0 -0 -0 -0 -0 -0 -0 -0 -0 -0 -0 -0 -0 -0 -0 nan nan nan nan nan nan nan nan nan nan nan nan nan nan nan nan nan nan nan nan nan nan nan nan nan nan nan nan nan nan nan nan nan nan nan nan
-0 -0 -0 -0 -0 -0 -0 -0 -0 -0 -0 -0 -0 -0 nan -0 -0 -0 -0 -0 -0 nan nan nan nan nan nan nan nan nan -7 -0 -0 -0 -0 -0 -0 -0 -0 -0 -0 -0 -0 -0 -0 -0 -0 -0 -0 nan nan nan nan nan nan nan nan nan nan nan nan nan nan nan nan nan nan nan nan nan nan nan nan nan nan nan nan nan nan nan nan nan nan nan nan nan
-0 -0 -0 -0 -0 -0 -0 -0 -0 -0 -0 -0 -0 -0 -0 -0 -0 -0 -0 -0 -0 -0 nan nan nan nan nan nan nan nan -12 -0 -0 -0 -0 -0 -0 -0 -0 -0 -0 -0 -0 -0 -0 -0 nan nan nan nan nan nan nan nan nan nan nan nan nan nan nan nan nan nan nan nan nan nan nan nan nan nan nan nan nan nan nan nan nan nan nan nan nan nan nan nan
nan -0 -0 -0 -0 -0 -0 -0 -0 -0 nan -0 -0 -0 -0 -0 -0 -0 nan nan nan nan nan nan nan nan nan nan nan nan nan nan nan nan -0 -0 -0 -0 -0 -0 -0 nan nan nan nan nan nan nan nan nan nan nan nan nan nan nan nan nan nan nan nan nan nan nan nan nan nan nan nan nan nan nan nan nan nan nan nan nan nan nan nan nan nan nan nan nan
-0 -0 -0 nan nan nan -0 -0 -0 -0 nan nan -1 -1 -0 -0 -0 -0 nan nan nan nan nan nan nan nan nan nan nan nan nan nan nan nan nan nan nan nan -0 nan nan nan nan nan nan nan nan nan nan nan nan nan nan nan nan nan nan nan nan nan nan nan nan nan nan nan nan nan nan nan nan nan nan nan nan nan nan nan nan nan nan nan nan nan nan nan
-0 -0 -0 nan nan nan -0 -0 -0 -0 nan nan nan nan nan -0 -0 -0 -0 nan nan nan nan nan nan nan nan nan nan nan nan nan nan nan nan nan nan nan nan nan nan nan nan nan nan nan nan nan nan nan nan nan nan nan nan nan nan nan nan nan nan nan nan nan nan nan nan nan nan nan nan nan nan nan nan nan nan nan nan nan nan nan nan nan nan nan
-0 -0 -0 nan nan -0 nan nan nan nan nan -0 -0 -0 nan nan -0 -0 -0 nan nan nan nan nan nan nan nan nan nan nan nan nan nan nan nan nan nan nan nan nan nan nan nan nan nan nan nan nan nan nan nan nan nan nan nan nan nan nan nan nan nan nan nan nan nan nan nan nan nan nan nan nan nan nan nan nan nan nan nan nan nan nan nan nan nan nan
-0 -0 -0 -0 -0 nan nan nan nan nan -0 -0 -0 -0 nan nan nan nan -0 nan nan nan nan nan nan nan nan nan nan nan nan nan nan nan nan nan nan nan nan nan nan nan nan nan nan nan nan nan nan nan nan nan nan nan nan nan nan nan nan nan nan nan nan nan nan nan nan nan nan nan nan nan nan nan nan nan nan nan nan nan nan nan nan nan nan nan
-0 nan -0 -0 -0 nan nan nan -0 -0 -0 -0 -0 -0 -0 nan nan nan nan nan nan nan nan nan nan nan nan nan nan nan nan nan nan nan nan nan nan nan nan nan nan nan nan nan nan nan nan nan nan nan nan nan nan nan nan nan nan nan nan nan nan nan nan nan nan nan nan nan nan nan nan nan nan nan nan nan nan nan nan nan nan nan nan nan nan nan
nan nan -0 -0 -0 nan nan nan nan nan -0 nan nan nan nan nan nan nan nan nan nan nan nan nan nan nan nan nan nan nan nan nan nan nan nan nan nan nan nan nan nan nan nan nan nan nan nan nan nan nan nan nan nan nan nan nan nan nan nan nan nan nan nan nan nan nan nan nan nan nan nan nan nan nan -0 nan -0 -0 nan nan nan nan nan nan nan nan
nan nan -0 -0 -0 -0 nan nan nan nan nan nan nan nan nan nan nan nan nan nan nan nan nan nan nan nan nan nan nan nan nan nan nan nan nan nan nan nan nan nan nan nan nan nan nan nan nan nan nan nan nan nan nan nan nan nan nan nan nan nan nan nan nan nan nan nan nan nan nan nan nan -0 -0 -0 -0 -0 -0 -0 -0 nan nan nan nan nan nan nan
nan nan nan nan nan -0 nan nan nan nan nan nan nan nan nan nan nan nan nan nan nan nan nan nan nan nan nan nan nan nan nan nan nan nan nan nan nan nan nan nan nan nan nan nan nan nan nan nan nan nan nan nan nan nan nan nan nan nan nan nan nan nan nan nan nan nan nan nan nan nan nan -0 -0 -0 -0 -0 -0 -0 -0 nan nan nan nan nan nan nan
nan nan nan nan nan nan nan nan nan nan nan nan nan nan nan nan nan nan nan nan nan nan nan nan nan -0 nan nan nan nan nan nan nan nan nan nan nan nan nan nan nan nan nan nan nan nan nan nan nan nan nan nan nan nan nan nan nan nan nan nan nan nan nan nan nan nan nan nan nan nan nan nan -0 -0 -0 -0 -0 -0 -0 -0 -0 nan nan nan nan nan
nan nan nan nan nan nan nan nan nan nan nan nan nan nan nan nan nan nan nan nan nan nan nan nan nan nan nan nan nan nan nan nan nan nan nan nan nan nan nan nan nan nan nan nan nan nan nan nan nan nan nan nan nan nan nan nan nan nan nan nan nan nan nan nan nan nan nan nan nan nan nan nan nan nan nan -0 -0 -0 -0 -0 -0 nan -0 -0 -0 -0
nan nan nan nan nan nan nan nan nan nan nan nan nan nan nan nan nan nan nan nan nan nan nan nan nan nan nan nan nan nan nan nan nan nan nan nan nan nan nan nan nan nan nan nan nan nan nan nan nan nan nan nan nan nan nan nan nan nan nan nan nan nan nan -0 -0 -0 nan nan nan nan -0 -0 nan nan nan nan -0 -0 -0 -0 -0 -0 -0 -0 -0 -0
nan nan nan nan nan nan nan nan nan nan nan nan nan nan nan nan nan nan nan nan nan nan nan nan nan nan nan nan nan nan nan nan nan nan nan nan nan nan nan nan nan nan nan nan nan nan nan nan nan nan nan nan nan nan nan nan nan nan nan nan nan nan nan -0 -0 -0 nan nan nan nan -0 -0 -0 -0 -0 -0 -0 -0 -0 -0 -0 -0 -0 -0 -0 -0
nan nan nan nan nan nan nan nan nan nan nan nan nan nan nan nan nan nan nan nan nan nan nan nan nan nan nan nan nan nan nan nan nan nan nan nan nan nan nan nan nan nan nan nan nan nan nan nan nan nan nan nan nan nan nan nan nan nan nan nan nan nan -0 -0 -0 -0 nan nan -0 -0 -0 -0 -0 -0 -0 -0 -0 -0 -0 -0 -0 -0 -0 -0 -0 -0
nan nan nan nan nan nan nan nan nan nan nan nan nan nan nan nan nan nan nan nan nan nan nan nan nan nan nan nan nan nan nan nan nan nan nan nan nan nan nan nan nan nan nan nan nan nan nan nan nan nan nan nan nan nan nan nan nan nan nan nan nan nan -0 -0 -0 -0 -0 -0 -0 -0 -0 -0 -0 -0 -0 -0 -0 -0 -0 -0 -0 -0 -0 -0 -0 -0
nan nan nan nan nan nan nan nan nan nan nan nan nan nan nan nan nan nan nan nan nan nan nan nan nan nan nan nan nan nan nan nan nan nan nan nan nan nan nan nan nan nan nan nan nan nan nan nan nan nan nan nan nan nan nan nan nan nan nan nan nan -0 -0 -0 -0 -0 -0 -0 -0 -0 -0 -0 -0 -0 -0 -0 -0 -0 -0 -0 -0 -0 -0 -0 -0 -0
nan nan nan nan nan nan nan nan nan nan nan nan nan nan nan nan nan nan nan nan nan nan nan nan nan nan nan nan nan nan nan nan nan nan nan nan nan nan nan nan nan nan nan nan nan nan nan nan nan nan nan nan nan nan nan nan nan nan nan nan nan -0 -0 -0 -0 -0 -0 -0 -0 -0 -0 -0 -0 -0 -0 -0 -0 -0 -0 -0 -0 -0 -0 -0 -0 -0
nan nan nan nan nan nan nan nan nan nan nan nan nan nan nan nan nan nan nan nan nan nan nan nan nan nan nan nan nan nan nan nan nan nan nan nan nan nan nan nan nan nan nan nan nan nan nan nan nan nan nan nan nan nan nan nan nan nan nan -0 -0 -0 -0 -0 -0 -0 -0 -0 -0 -0 -0 -0 -0 -0 -0 -0 -0 -0 -0 -0 -0 -0 -0 -0 -0 -0
nan nan nan nan nan nan nan nan nan nan nan nan nan nan nan nan nan nan nan nan nan nan nan nan nan nan nan nan nan nan nan nan nan nan nan nan nan nan nan nan nan nan nan nan nan nan nan nan nan nan nan nan nan nan nan nan nan nan -0 -0 -0 -0 -0 -0 -0 -0 nan nan -0 -0 -0 -0 -0 -0 -0 -0 -0 -0 -0 -0 -0 -0 -0 -0 -0 -0
nan nan nan nan nan nan nan nan nan nan nan nan nan nan nan nan nan nan nan nan nan nan nan nan nan nan nan nan nan nan nan nan nan nan nan nan nan nan nan nan nan nan nan nan nan nan nan nan nan nan nan nan nan nan nan nan nan -9 -0 -0 -0 -0 -0 nan nan nan nan nan nan nan -0 -0 -0 -0 -0 -0 -0 -0 -0 -0 -0 -0 -0 -0 -0 -0
nan nan nan nan nan nan nan nan nan nan nan nan nan nan nan nan nan nan nan nan nan nan nan nan nan nan nan nan nan nan nan nan nan nan nan nan nan nan nan nan nan nan nan nan nan nan nan nan nan nan nan nan nan nan nan nan nan nan -8 -0 -0 -0 nan nan nan nan nan nan nan nan -0 -0 -0 -0 -0 -0 -0 -0 -0 -0 -0 -0 -0 -0 -0 -0
nan nan nan nan nan -0 -0 -0 nan nan nan nan nan nan nan nan nan nan nan nan nan nan nan nan nan nan nan nan nan nan nan nan nan nan nan nan nan nan nan nan nan nan nan nan nan nan nan nan nan nan nan nan nan nan nan nan nan nan nan nan nan nan nan nan nan nan nan nan nan nan nan -0 -0 -0 -0 -0 -0 -0 -0 -0 -0 -0 -0 -0 -0 -0
nan -0 -0 -0 -0 -0 -0 nan nan nan nan nan nan nan nan nan nan nan nan nan nan nan nan nan nan nan nan nan nan nan nan nan nan nan nan nan nan nan nan nan nan nan nan nan nan nan nan nan nan nan nan nan nan nan nan nan nan nan nan nan nan nan nan nan nan nan nan nan nan nan nan -0 -0 -0 -0 -0 -0 -0 -0 -0 -0 -0 -0 -0 -0 -0
nan nan nan nan nan nan nan -0 nan nan nan nan nan nan nan nan nan nan nan nan nan nan nan nan nan nan nan nan nan nan nan nan nan nan nan nan nan nan nan nan nan nan nan nan nan nan nan nan nan nan nan nan nan nan nan nan nan nan nan nan nan nan nan nan nan nan nan nan nan nan nan nan -0 -0 -0 -0 -0 -0 -0 -0 -0 -0 -0 -0 -0 -0
nan nan nan nan nan nan nan nan nan nan nan nan nan nan nan nan nan nan nan nan nan nan nan nan nan nan nan nan nan nan nan nan nan nan nan nan nan nan nan nan nan nan nan nan nan nan nan nan nan nan nan nan nan nan nan nan nan nan nan nan nan nan nan nan nan nan nan nan nan nan nan nan nan nan nan -0 -0 -0 -0 -0 -0 -0 -0 -0 -0 -0
nan nan nan nan nan nan nan nan nan nan nan nan nan nan nan nan nan nan nan nan nan nan nan nan nan nan nan nan nan nan nan nan nan nan nan nan nan nan nan nan nan nan nan nan nan nan nan nan nan nan nan nan nan nan nan nan nan nan nan nan nan nan nan nan nan nan nan nan nan nan nan nan nan nan nan nan -0 -0 -0 -0 -0 -0 -0 -5 -5 -0
nan nan nan nan nan nan nan nan nan nan nan nan nan nan nan nan nan nan nan nan nan nan nan nan nan nan nan nan nan nan nan nan nan nan nan nan nan nan nan nan nan nan nan nan nan nan nan nan nan nan nan nan nan nan nan nan nan nan nan nan nan nan nan nan nan nan nan nan nan nan nan nan nan nan nan nan nan nan -0 -0 -0 -0 -0 -4 -4 -0
nan nan nan nan nan nan nan nan nan nan nan nan nan nan nan nan nan nan nan nan nan nan nan nan nan nan nan nan nan nan nan nan nan nan nan nan nan nan nan nan nan nan nan nan nan nan nan nan nan nan nan nan nan nan nan nan nan nan nan nan nan nan nan nan nan nan nan nan nan nan nan nan nan nan nan nan -0 -0 -0 -0 -0 -0 -0 -0 -0 -0
nan nan nan nan nan nan nan nan nan nan nan nan nan nan nan nan nan nan nan nan nan nan nan nan nan nan nan nan nan nan nan nan nan nan nan nan nan nan nan nan nan nan nan nan nan nan nan nan nan nan nan nan nan nan nan nan nan nan nan nan nan nan nan nan nan nan nan nan nan nan nan nan nan nan nan nan nan nan nan nan nan nan -0 -0 -0 -4
nan nan nan nan nan nan nan nan nan nan nan nan nan nan nan nan nan nan nan nan nan nan nan nan nan nan nan nan nan nan nan nan nan nan nan nan nan nan nan nan nan nan nan nan nan nan nan nan nan nan nan nan nan nan nan nan nan nan nan nan nan nan nan nan nan nan nan nan nan nan nan nan nan nan nan nan nan nan nan nan nan nan nan nan nan nan
nan nan nan nan nan nan nan nan nan nan nan nan nan nan nan nan nan nan nan nan nan nan nan nan nan nan nan nan nan nan nan nan nan nan nan nan nan nan nan nan nan nan nan nan nan nan nan nan nan nan nan nan nan nan nan nan nan nan nan nan nan nan nan nan nan nan nan nan nan nan nan nan nan nan nan nan nan nan nan nan nan nan nan nan nan nan
nan nan nan nan nan nan nan nan nan nan nan nan nan nan nan nan nan nan nan nan nan nan nan nan nan nan nan nan nan nan nan nan nan nan nan nan nan nan nan nan nan nan nan nan nan nan nan nan nan nan nan nan nan nan nan nan nan nan nan nan nan nan nan nan nan nan nan nan nan nan nan nan nan nan nan nan nan nan nan nan nan nan nan nan nan nan
nan nan nan nan nan nan nan nan nan nan nan nan nan nan nan nan nan nan nan nan nan nan nan nan nan nan nan nan nan nan nan nan nan nan nan -0 nan nan nan nan nan nan nan nan nan nan nan nan nan nan nan nan nan nan nan nan nan nan nan nan nan nan nan nan nan nan nan nan nan nan nan nan nan nan nan nan nan nan nan nan nan nan nan nan nan nan
nan nan nan nan nan nan nan nan nan nan nan nan nan nan nan nan nan nan nan nan nan nan nan nan nan nan nan nan nan nan nan nan nan nan nan nan nan nan nan nan nan nan nan nan nan nan nan nan nan nan nan nan nan nan nan nan nan nan nan nan nan nan nan nan nan nan nan nan nan nan nan nan nan nan nan nan nan nan nan nan nan nan nan nan nan nan
nan nan nan nan nan nan nan nan nan nan nan nan nan nan nan nan nan nan nan nan nan nan nan nan nan nan nan nan nan nan nan nan nan nan nan nan nan nan nan nan nan nan nan nan nan nan nan nan nan nan nan nan nan nan nan nan nan nan nan nan nan nan nan nan nan nan nan nan nan nan nan nan nan nan nan nan nan nan nan nan nan nan nan nan nan nan
nan nan nan nan nan nan nan nan nan nan nan nan nan nan nan nan nan nan nan nan nan nan nan nan nan nan nan nan nan nan nan nan nan nan nan nan nan nan nan nan nan nan nan nan nan nan nan nan nan nan nan nan nan nan nan nan nan nan nan nan nan nan nan nan nan nan nan nan nan nan nan nan nan nan nan nan nan nan nan nan nan nan nan nan nan nan
nan nan nan nan nan nan nan nan nan nan nan nan nan nan nan nan nan nan nan nan nan nan nan nan nan nan nan nan nan nan nan nan nan nan nan nan nan nan nan nan nan nan nan nan nan nan nan nan nan nan nan nan nan nan nan nan nan nan nan nan nan nan nan nan nan nan nan nan nan nan nan nan nan nan nan nan nan nan nan nan nan nan nan nan nan nan
nan nan nan nan nan nan nan nan nan nan nan nan nan nan nan nan nan nan nan nan nan nan nan nan nan nan nan nan nan nan nan nan nan nan nan nan -0 -0 nan nan nan nan nan nan nan nan nan nan nan nan nan nan nan nan nan nan nan nan nan nan nan nan nan nan nan nan nan nan nan nan nan nan nan nan nan nan nan nan nan nan nan nan nan nan nan nan
nan nan nan nan nan nan nan nan nan nan nan nan nan nan nan nan nan nan nan nan nan nan nan nan nan nan nan nan nan nan nan nan nan nan nan nan nan nan nan nan nan nan nan nan nan nan nan nan nan nan nan nan nan nan nan nan nan nan nan nan nan nan nan nan nan nan nan nan nan nan nan nan nan nan nan nan nan nan nan nan nan nan nan nan nan nan
nan nan nan nan nan nan nan nan nan nan nan nan nan nan nan nan nan nan nan nan nan nan nan nan nan nan nan nan nan nan nan nan nan nan nan nan nan nan nan nan nan nan nan nan nan nan nan nan nan nan nan nan nan nan nan nan nan nan nan nan nan nan nan nan nan nan nan nan nan nan nan nan nan nan nan nan nan nan nan nan nan nan nan nan nan nan
nan nan nan nan nan nan nan nan nan nan nan nan nan nan nan nan nan nan nan nan nan nan nan nan nan nan nan nan nan nan nan nan nan nan nan nan nan nan nan nan nan nan nan nan nan nan nan nan nan nan nan nan nan nan nan nan nan nan nan nan nan nan nan nan nan nan nan nan nan nan nan nan nan nan nan nan nan nan nan nan nan nan nan nan nan nan
nan nan nan nan nan nan nan nan nan nan nan nan nan nan nan nan nan nan nan nan nan nan nan nan nan nan nan nan nan nan nan nan nan nan nan nan nan nan nan nan nan nan nan nan nan nan nan -0 -0 nan nan nan nan nan nan nan nan nan nan nan nan nan nan nan nan nan nan nan nan nan nan nan nan nan nan nan nan nan nan nan nan nan nan nan nan nan
nan nan nan nan nan nan nan nan nan nan nan nan nan nan nan nan nan nan nan nan nan nan nan nan nan nan nan nan nan nan nan nan nan nan nan nan nan nan nan nan nan nan nan nan nan nan nan -0 -0 -0 -0 nan nan nan nan nan nan nan nan nan nan nan nan nan nan nan nan nan nan nan nan nan nan nan nan nan nan nan nan nan nan nan nan nan nan nan
nan nan nan nan nan nan nan nan nan nan nan nan nan nan nan nan nan nan nan nan nan nan nan nan nan nan nan nan nan nan nan nan nan nan nan nan nan nan nan nan nan nan nan nan nan nan nan nan nan nan -0 -0 -0 -0 nan nan nan nan nan nan nan nan nan nan nan nan nan nan nan nan nan nan nan nan nan -0 nan nan nan nan nan nan nan nan nan nan
Wind_Speed
2 3 4 6 7 6 6 7 7 6 5 4 4 4 4 4 4 4 4 4 3 3 3 3 2 2 3 5 7 8 8 8 8 8 7 7 7 7 8 7 8 8 8 8 8 7 8 8 8 8 8 8 9 9 9 9 9 8 8 8 8 8 8 8 8 8 8 9 9 9 9 8 8 7 7 6 6 6 5 5 6 5 5 5 5 5
3 3 4 6 7 6 5 7 7 6 6 5 4 4 4 4 4 3 3 3 3 3 3 2 2 2 2 3 5 7 7 7 7 7 7 7 7 7 7 7 7 8 8 8 8 8 8 8 8 8 8 8 8 8 8 8 8 8 8 8 8 8 8 8 8 8 8 9 9 8 8 8 7 7 6 6 5 5 5 5 5 5 5 5 5 5
3 3 4 5 5 5 4 5 5 5 5 5 5 5 5 5 4 3 3 3 3 3 3 2 2 2 2 2 3 5 6 7 7 7 7 7 7 7 7 8 8 8 8 8 8 8 8 8 8 8 8 8 7 7 7 7 7 7 7 7 7 7 7 8 8 8 8 8 8 8 7 7 6 6 6 5 5 5 5 5 5 5 5 5 5 5
4 4 4 3 3 2 2 3 4 3 4 4 4 5 5 5 4 3 2 3 3 3 3 3 2 2 2 2 1 3 6 7 7 7 7 7 7 8 8 8 8 8 8 8 8 8 8 8 8 7 7 7 6 6 6 6 6 6 6 6 6 7 7 7 7 7 8 7 7 7 7 6 6 6 5 5 5 5 4 4 4 4 4 5 5 5
4 4 4 3 2 2 2 3 4 4 4 4 4 4 4 3 3 2 2 3 3 3 3 3 2 2 1 2 1 1 5 7 8 8 8 8 8 8 8 8 8 8 8 8 8 8 8 7 7 7 6 6 5 5 5 5 5 5 5 6 6 6 6 6 6 7 7 7 6 6 6 6 5 5 5 5 4 4 4 4 4 4 4 4 5 5
3 3 3 2 2 2 2 2 3 4 4 3 3 3 3 3 2 2 2 3 3 3 3 2 2 2 2 2 1 1 5 7 8 8 8 8 8 8 8 8 8 9 8 8 8 8 7 7 6 5 5 5 4 4 4 4 5 5 5 5 5 5 5 5 5 5 5 6 5 5 5 5 5 4 4 4 4 4 4 4 4 4 4 4 5 5
3 2 2 2 2 2 2 2 3 3 3 3 3 3 3 3 2 2 2 2 2 2 2 2 2 2 3 3 3 2 4 6 7 8 8 8 9 9 8 8 8 8 8 8 7 7 6 5 5 4 4 4 4 4 4 4 4 5 5 5 4 4 4 4 4 4 4 4 4 4 4 4 4 4 4 3 4 4 4 4 4 4 4 4 4 5
3 2 2 2 2 2 2 1 1 2 2 3 3 3 3 2 2 2 3 3 2 2 2 2 2 2 3 3 3 2 3 4 5 5 6 7 7 8 8 8 8 8 7 7 6 6 5 4 4 3 3 3 3 3 4 4 4 4 4 4 4 4 3 3 3 3 3 3 3 3 3 3 3 3 3 3 3 3 3 4 4 4 4 4 4 4
5 4 3 3 3 3 2 1 1 0 0 2 3 4 3 3 2 2 2 2 2 2 1 1 2 3 3 2 2 2 3 4 4 4 4 4 5 6 7 7 7 7 6 6 5 5 4 3 3 3 3 3 3 4 4 4 4 4 4 3 3 2 2 2 2 2 2 3 3 3 3 3 2 2 2 2 2 3 3 3 3 4 4 4 4 4
5 5 4 3 2 2 3 2 1 1 0 1 1 2 3 4 4 3 2 2 1 1 1 1 2 2 2 2 2 2 2 4 5 6 6 6 6 6 6 6 5 5 5 5 4 4 3 3 2 3 3 3 4 4 4 4 3 3 2 2 2 1 1 1 1 1 2 2 2 2 2 2 2 2 2 2 2 2 2 3 3 3 3 4 4 4
5 5 4 3 1 1 2 2 2 2 2 2 2 2 1 2 4 5 5 3 2 2 1 1 1 1 1 1 1 2 2 3 4 5 6 6 6 6 6 6 5 5 5 5 4 4 3 2 2 2 3 3 4 4 4 3 2 1 1 1 1 2 2 1 1 1 1 1 1 2 2 2 2 2 2 2 2 2 2 2 2 3 3 3 3 4
4 4 3 3 2 2 2 2 2 2 3 3 3 2 2 1 1 3 5 5 4 3 2 1 1 1 1 1 1 1 1 2 2 3 3 4 4 4 4 4 4 4 4 4 4 4 4 4 3 2 2 3 3 4 3 2 1 0 1 2 2 2 2 2 1 1 0 1 1 1 2 2 2 2 2 2 2 2 2 2 2 2 2 3 3 3
3 3 3 3 3 2 2 3 3 3 3 4 5 5 5 2 1 1 3 4 4 3 2 2 1 1 1 1 1 1 0 1 2 2 2 2 2 3 2 2 2 2 2 2 3 3 4 4 3 2 2 2 2 2 3 2 1 1 2 3 3 3 3 2 2 1 0 0 1 1 2 2 2 2 2 2 2 2 2 1 2 2 2 2 3 3
3 3 3 3 3 3 3 4 5 5 6 5 4 3 3 3 2 2 2 2 2 2 1 2 2 1 1 1 1 1 1 0 1 1 2 2 2 2 2 1 1 1 1 1 1 2 2 2 2 2 2 1 1 1 2 1 1 2 3 3 3 3 3 2 2 1 1 0 1 1 1 1 2 2 2 2 2 2 2 1 1 2 2 2 3 3
4 4 4 4 4 4 4 5 6 6 6 3 2 2 3 3 3 3 3 3 3 2 2 2 2 1 1 1 0 1 1 0 1 2 2 1 1 1 2 1 0 0 0 0 1 1 2 2 1 1 1 1 0 1 2 2 2 3 3 3 3 3 3 2 2 1 1 0 0 1 1 1 1 2 2 2 2 2 2 2 2 2 2 2 3 3
4 5 5 5 5 5 4 4 5 4 4 3 3 3 4 4 4 3 4 4 4 3 3 3 2 1 1 1 1 0 1 1 1 2 2 2 1 1 2 1 1 0 0 0 1 1 1 1 1 1 1 1 1 2 2 3 3 3 3 3 3 3 3 2 2 1 1 0 0 0 1 1 1 1 2 2 2 2 2 2 2 2 2 2 3 3
4 4 5 5 5 5 3 3 3 3 3 3 2 3 3 4 4 4 4 4 4 3 3 4 4 3 2 1 1 1 0 1 1 1 2 1 1 1 2 1 1 0 0 0 0 1 1 1 1 0 1 2 2 3 3 3 3 3 3 3 3 3 2 2 2 2 1 1 1 0 0 0 1 1 2 2 2 2 2 2 2 2 2 2 3 3
3 4 4 4 4 4 3 3 2 2 3 3 3 2 2 2 2 3 4 4 4 4 4 3 3 2 2 2 2 1 1 1 1 1 2 1 1 1 1 1 1 0 0 0 0 1 1 1 1 1 1 2 2 3 3 3 3 3 3 3 3 3 3 2 2 2 1 1 1 1 1 0 0 1 1 2 2 2 2 2 2 2 2 2 3 3
3 3 4 4 4 3 3 3 3 4 4 4 4 4 3 2 2 2 3 3 4 4 4 3 2 2 1 1 1 1 1 1 1 2 2 1 1 1 1 1 1 0 0 0 0 1 1 1 1 2 2 3 3 3 3 3 3 3 3 3 3 3 3 3 2 2 1 1 1 1 1 1 1 1 1 1 1 1 2 2 2 2 2 2 2 3
4 4 4 3 3 3 4 4 5 5 6 6 5 5 4 4 3 3 3 3 2 2 2 3 2 2 1 1 1 1 1 1 1 1 2 1 1 1 1 1 1 0 1 0 0 1 1 1 1 2 3 3 3 3 3 3 3 3 3 3 3 3 3 3 3 2 2 1 1 1 1 1 1 1 1 2 2 2 2 2 2 2 2 2 2 2
4 5 5 3 4 4 4 5 6 6 6 6 6 5 5 4 4 4 3 3 2 2 2 2 2 1 1 1 2 1 0 0 1 1 1 0 0 0 1 1 1 0 1 0 1 1 1 1 1 2 3 3 3 3 3 3 3 3 3 3 3 3 3 3 3 3 3 2 2 2 1 1 1 2 2 2 2 3 3 3 3 3 3 3 3 3
4 5 5 4 4 4 4 5 6 7 7 8 7 6 5 5 5 5 4 4 4 3 2 2 1 1 1 2 2 1 1 1 0 1 2 0 0 0 1 0 0 0 1 0 0 0 1 1 1 1 2 3 3 3 3 3 3 4 4 4 4 4 4 4 4 3 3 2 2 2 2 2 2 2 2 3 3 3 3 3 4 4 4 4 4 4
3 3 4 4 4 3 2 4 6 7 7 7 6 6 5 5 6 6 5 5 4 3 3 3 3 2 2 2 2 1 1 1 0 0 2 1 1 0 1 0 0 0 1 0 1 1 1 1 1 1 2 3 3 3 3 4 4 4 4 4 4 4 5 4 4 4 3 3 3 3 3 3 3 3 3 3 3 3 4 4 4 4 4 4 4 4
2 2 3 4 3 2 2 4 5 5 5 4 3 2 2 3 3 3 3 4 4 4 4 4 3 3 2 2 2 1 0 1 1 0 1 1 1 1 1 0 0 1 0 1 1 1 1 1 1 1 1 3 3 3 4 4 5 5 5 5 5 5 5 5 4 4 3 3 3 4 4 4 4 4 4 4 4 4 4 4 4 4 4 4 4 4
1 1 2 3 4 4 3 5 6 6 6 4 4 4 5 5 6 5 5 5 5 5 4 4 3 2 1 1 1 1 0 0 1 0 1 1 1 0 1 0 0 0 0 1 1 1 1 0 0 1 1 2 3 4 4 5 5 6 6 6 5 5 5 4 4 3 3 3 3 4 4 4 5 5 5 5 5 5 4 4 4 4 4 4 4 5
2 3 4 5 6 7 7 9 10 10 10 7 6 6 6 6 6 6 5 4 4 5 5 4 3 2 1 1 1 1 1 0 0 0 0 1 1 1 1 0 0 0 0 0 0 0 1 0 0 1 1 2 3 4 5 4 5 6 6 6 5 5 4 3 3 2 1 2 3 3 4 4 5 5 5 5 5 5 5 4 4 4 4 4 4 4
5 6 8 9 9 10 11 12 13 14 13 11 10 8 7 7 6 6 5 4 4 4 4 3 2 1 1 1 1 1 1 1 1 1 0 0 1 1 1 0 0 0 0 0 0 0 0 0 1 1 1 1 2 4 5 4 2 3 5 5 5 4 3 3 2 1 1 1 2 3 4 4 5 5 5 5 5 5 5 5 5 5 5 4 4 4
9 9 10 10 11 11 12 13 14 15 14 14 13 12 9 7 6 6 5 5 4 4 3 3 2 2 2 1 1 1 1 1 2 2 1 1 0 1 1 1 0 0 0 0 0 0 0 0 1 1 1 1 2 2 4 5 4 2 2 3 4 4 3 2 1 1 1 2 2 3 4 4 4 4 5 5 5 5 5 5 5 5 5 4 3 2
9 10 10 11 11 12 13 13 14 14 14 14 13 11 7 5 5 5 5 5 4 4 3 3 2 2 2 1 1 0 1 1 2 3 2 1 1 1 1 1 0 0 0 0 0 1 0 0 0 0 1 1 1 2 3 4 4 4 4 3 3 3 3 2 2 2 2 2 3 3 4 4 4 4 4 5 5 5 5 6 5 5 4 4 3 2
7 8 8 8 9 9 9 10 11 12 14 13 11 8 4 3 3 4 5 5 5 4 4 3 2 2 2 1 1 0 1 2 3 3 3 2 1 1 1 1 0 0 0 0 1 1 1 1 1 0 0 1 1 1 2 2 3 3 3 3 2 3 3 3 3 3 3 3 3 4 4 5 5 5 5 5 5 5 5 6 5 4 3 3 2 2
5 5 5 5 5 5 5 5 6 8 10 9 8 5 3 3 3 4 5 4 4 4 4 3 3 2 2 2 2 1 1 2 3 4 3 2 1 1 1 1 1 0 1 0 0 1 1 1 1 1 1 1 1 1 1 2 2 2 2 2 1 2 4 4 3 3 3 3 3 4 5 5 5 5 5 5 5 6 6 6 6 4 3 2 2 2
4 4 4 4 4 4 4 4 4 4 5 5 4 4 4 3 4 4 4 4 3 3 4 3 3 2 2 2 1 1 1 2 3 4 4 2 1 1 1 1 1 0 1 1 1 0 1 1 1 1 0 1 1 1 1 1 1 1 1 1 1 1 3 3 3 3 3 3 3 4 4 5 5 6 6 6 6 6 6 7 6 5 3 2 3 3
4 4 3 3 3 3 3 3 3 3 3 3 3 3 3 3 4 4 3 3 3 3 4 4 3 3 2 1 1 1 1 1 3 5 5 3 2 1 1 1 1 1 0 1 1 1 1 1 1 0 0 0 0 0 1 1 1 1 1 1 0 1 1 2 2 2 2 2 3 3 3 4 4 5 5 6 6 6 7 7 7 6 4 3 3 4
4 4 4 3 3 3 3 3 3 3 3 3 3 3 3 3 3 3 3 2 2 2 3 4 4 3 3 1 1 0 1 2 4 5 6 3 2 2 2 1 2 2 1 1 1 1 1 1 0 0 0 0 0 0 0 0 1 1 1 1 1 0 1 1 1 1 1 2 1 1 2 2 3 3 4 4 5 6 6 7 7 7 6 4 3 4
4 4 3 3 3 3 3 3 3 3 3 3 3 3 3 3 3 3 3 2 2 2 2 2 3 3 3 2 2 1 1 2 4 6 6 3 2 2 2 2 2 2 2 1 1 1 1 1 0 0 0 0 0 1 1 0 0 0 0 1 1 0 0 1 1 1 1 1 1 1 1 1 1 2 2 3 4 4 5 5 6 7 7 6 5 4
3 3 3 3 3 3 3 3 3 3 3 2 2 2 2 2 2 2 2 2 2 2 2 2 1 1 2 2 2 2 2 3 5 6 6 4 3 2 2 2 2 2 2 2 1 1 1 1 1 0 0 0 0 1 1 1 0 1 1 1 1 1 1 0 0 0 1 1 1 1 0 1 1 1 1 2 3 3 4 4 5 5 6 6 5 5
3 3 3 3 3 3 4 3 3 3 3 2 2 2 2 2 2 2 2 2 2 2 2 2 2 2 2 1 1 1 2 4 5 6 6 4 3 2 1 2 2 3 2 2 2 2 1 1 1 1 0 1 1 1 0 0 0 1 1 1 1 1 1 1 1 0 1 1 1 1 1 1 1 1 1 2 3 3 3 4 4 4 5 5 6 6
4 4 3 2 2 3 3 3 3 2 2 2 2 2 2 2 3 3 2 2 2 2 2 2 2 3 3 3 2 2 2 4 5 6 6 5 3 2 2 2 2 2 2 2 2 2 2 2 2 1 1 1 1 1 0 0 0 0 0 1 1 1 1 1 1 1 1 1 1 1 1 1 1 1 1 1 2 2 2 2 2 3 3 4 5 6
4 4 3 3 2 2 2 2 2 2 2 2 2 2 3 3 3 3 3 2 2 2 2 2 2 2 3 3 3 3 3 3 4 5 5 5 3 2 2 2 2 2 2 1 2 2 2 2 2 2 1 1 1 1 0 0 1 1 1 1 1 1 1 1 1 1 1 1 1 1 1 1 1 1 1 1 1 1 1 1 2 2 2 2 3 5
4 3 3 3 2 2 1 2 2 3 3 3 3 3 3 3 3 3 3 2 2 2 2 2 2 2 2 2 3 3 3 2 2 2 3 4 3 3 2 2 3 3 2 2 1 1 2 2 2 2 1 1 1 1 1 1 1 1 2 2 2 1 1 1 2 1 1 1 1 1 1 1 1 1 1 1 1 1 2 1 2 2 2 1 2 3
4 3 3 3 2 2 2 2 3 3 3 3 3 3 3 3 3 2 2 2 2 2 2 2 2 2 2 2 2 3 3 2 1 1 1 2 2 2 2 2 2 3 3 2 2 1 2 2 2 2 2 2 2 2 2 2 2 3 3 3 3 2 2 2 1 1 1 1 1 1 1 1 1 1 1 1 1 1 2 2 2 2 2 2 2 2
4 4 3 2 2 2 2 3 3 3 3 3 3 3 3 3 3 3 3 3 2 2 1 2 2 2 2 2 2 2 2 2 1 0 1 1 1 2 2 2 2 3 3 3 2 2 2 3 3 3 3 3 3 3 3 3 3 3 4 4 4 4 4 2 1 1 1 1 1 1 1 1 1 1 2 2 2 2 2 2 3 3 3 2 2 2
4 3 3 3 3 3 3 3 3 3 3 3 3 3 2 2 3 3 4 3 3 3 2 2 2 2 2 2 2 2 2 1 1 1 1 1 1 2 2 2 2 3 3 3 2 2 2 2 3 3 3 3 3 4 4 3 3 3 3 3 3 3 2 1 1 1 1 1 1 1 1 1 1 2 2 3 3 2 2 3 4 4 4 3 3 3
3 3 3 3 3 3 3 3 3 3 3 3 3 2 2 2 2 3 3 3 3 3 2 1 1 1 1 1 1 1 1 1 1 1 0 2 3 3 3 2 2 3 4 3 3 2 2 2 3 3 3 3 3 4 4 4 3 3 3 3 4 3 3 1 1 1 1 1 1 2 2 1 1 2 2 3 3 3 2 2 3 3 4 3 3 3
3 3 3 3 3 3 3 3 3 3 3 3 3 3 2 2 2 2 2 3 3 2 1 1 1 1 1 1 0 0 0 1 1 1 1 2 3 4 3 3 3 3 4 4 4 3 3 3 3 3 3 3 4 4 5 4 4 4 3 4 4 4 5 3 2 2 2 2 2 2 1 1 1 2 3 3 3 3 2 2 3 3 3 3 3 3
4 4 4 4 4 4 4 4 3 3 3 3 3 2 2 2 2 2 3 3 3 2 1 1 1 2 2 1 1 0 0 1 1 2 2 2 2 2 2 3 3 3 3 3 3 3 3 3 2 2 2 3 4 5 5 5 4 4 4 4 4 4 4 4 4 4 4 4 3 3 1 0 1 2 3 3 3 3 2 3 3 3 3 3 3 3
5 5 5 4 4 4 4 4 3 3 3 3 3 2 2 2 2 2 2 2 2 2 2 1 1 2 2 1 1 1 1 1 1 1 2 2 2 2 1 2 2 2 2 2 2 3 3 2 2 2 3 3 4 4 5 5 4 4 4 3 3 4 4 4 4 4 4 4 4 2 1 1 2 3 3 3 3 3 3 3 3 3 3 3 3 3
6 6 5 5 4 4 4 4 4 4 4 3 3 2 2 2 3 3 2 2 2 2 3 2 2 2 2 2 1 1 2 2 1 1 1 2 2 2 2 2 2 2 2 2 2 3 3 3 4 4 4 4 4 4 4 4 4 4 4 3 4 4 4 4 4 3 3 4 3 2 2 2 2 3 3 3 3 3 3 3 3 3 3 3 3 4
6 6 6 5 5 5 4 4 4 4 4 4 3 3 2 3 3 3 2 2 3 3 3 3 3 3 3 2 2 2 2 1 1 1 1 1 2 2 2 2 2 2 2 2 2 2 3 4 5 6 6 6 5 5 4 4 4 4 4 4 4 4 4 4 3 3 3 3 2 2 2 3 3 3 3 3 4 4 3 3 3 3 3 3 3 3
5 5 5 5 5 5 5 5 5 5 4 4 4 3 3 2 2 2 2 2 3 3 3 4 4 4 4 3 3 3 3 2 2 1 1 1 2 2 2 3 3 2 2 2 1 1 2 3 4 7 9 9 8 7 5 4 4 4 4 4 4 4 4 4 3 3 2 2 2 2 2 2 2 2 2 3 4 4 4 4 3 3 3 3 3 3
5 5 5 5 5 5 5 5 5 5 5 5 5 4 4 3 3 2 2 2 3 3 3 4 4 4 4 4 4 4 4 3 3 3 2 2 2 2 3 3 3 3 3 2 2 1 1 1 2 4 6 10 11 10 6 5 4 3 3 4 3 3 3 3 3 2 2 2 2 2 2 2 2 3 3 3 3 4 4 4 3 3 3 2 2 3
Wind_Direction
139 150 158 162 163 165 172 170 163 155 149 143 136 127 115 103 93 83 76 71 71 75 77 72 65 68 90 119 125 126 126 126 125 124 123 124 124 124 123 121 118 116 113 111 109 107 104 101 97 92 88 84 81 79 76 75 73 71 68 67 65 63 62 61 61 61 63 63 63 62 61 59 55 51 46 41 37 33 30 27 22 17 12 6 359 349
141 147 160 167 168 167 168 170 167 161 154 148 143 136 128 120 111 99 84 73 68 66 65 61 56 53 57 91 121 130 131 131 132 132 132 132 131 130 128 126 124 121 118 116 114 111 109 105 101 97 92 88 84 80 78 76 73 71 69 66 64 62 60 58 56 55 55 54 54 53 52 49 46 42 36 32 27 23 21 19 15 10 4 357 350 341
152 153 161 167 168 166 161 166 164 156 147 142 140 138 136 129 123 113 103 89 76 64 54 44 38 38 43 43 111 134 137 136 137 137 137 136 135 133 131 129 127 124 122 120 117 115 112 109 105 101 96 92 88 84 81 79 76 73 71 68 65 62 60 57 55 52 50 49 48 46 44 41 37 31 26 21 16 12 10 8 5 0 354 347 339 332
158 158 161 155 153 150 142 148 141 129 118 120 123 127 128 123 117 110 105 99 88 74 56 39 26 18 27 17 64 134 141 139 139 139 139 138 136 135 133 132 130 128 125 123 121 118 115 111 108 104 100 96 92 89 87 84 82 79 76 72 68 65 62 58 55 51 48 46 43 40 37 33 28 22 16 11 5 0 357 354 351 347 341 334 328 323
164 159 155 142 127 113 104 117 117 111 103 103 106 108 107 105 104 102 99 96 91 84 69 47 26 10 17 9 12 138 144 142 142 142 141 140 139 138 137 136 133 130 128 125 123 120 117 113 109 106 102 99 96 94 93 92 90 87 84 79 74 70 66 61 56 51 47 43 39 34 30 25 20 15 9 3 357 350 344 341 336 331 326 321 317 314
160 150 140 130 121 114 112 118 122 121 114 108 102 98 95 95 96 96 96 93 92 88 81 65 41 22 26 16 22 108 137 140 141 142 142 142 142 141 140 137 134 131 128 126 123 121 117 114 111 107 104 101 100 99 99 99 98 94 91 85 79 74 69 62 57 51 46 40 35 30 25 20 15 10 4 358 352 344 338 332 325 319 314 309 307 305
143 129 121 109 104 105 110 123 135 138 136 130 119 109 100 94 89 86 86 88 90 91 92 88 72 52 42 26 27 55 111 127 131 134 138 141 142 141 138 135 132 130 127 125 122 120 118 115 113 110 108 106 105 104 103 101 99 96 93 87 80 74 67 61 54 47 42 37 32 27 21 15 10 6 2 357 351 344 337 330 322 314 307 303 300 299
140 137 139 129 121 114 108 114 126 138 148 147 142 133 122 107 93 85 83 81 80 81 92 98 92 76 56 35 29 44 85 105 110 114 123 130 132 132 132 130 128 126 124 122 121 120 119 119 118 119 119 117 113 108 103 99 96 93 89 83 76 68 60 53 46 41 36 32 27 22 16 11 5 2 0 358 354 348 342 333 324 315 308 303 299 296
149 154 160 156 148 143 143 135 116 83 137 151 149 146 143 135 124 107 97 84 70 59 58 96 103 95 75 48 36 51 83 96 95 92 95 101 108 114 119 121 121 120 119 118 119 119 121 124 129 134 136 129 120 111 104 98 93 89 83 76 66 55 44 37 31 27 24 22 19 15 10 5 1 358 358 360 357 353 347 339 330 322 316 310 305 300
152 156 158 154 151 151 152 143 131 104 49 104 123 133 147 148 147 144 138 114 84 62 48 71 98 106 96 67 48 53 75 91 90 84 78 73 77 85 90 95 101 105 103 106 109 111 114 119 133 144 144 135 125 116 108 102 95 86 74 58 38 16 359 356 359 5 9 11 10 7 4 0 357 355 355 355 354 352 350 345 339 333 327 320 313 308
154 156 153 145 127 107 115 120 121 123 129 109 94 87 109 147 157 160 160 153 141 118 83 60 66 85 100 81 55 45 58 82 80 74 67 61 62 65 65 67 72 77 81 84 86 88 87 84 102 129 139 135 130 123 116 110 100 85 46 359 328 310 298 296 300 319 346 359 2 2 1 357 353 351 348 347 347 347 348 351 350 346 338 330 323 317
154 155 152 145 134 115 101 101 107 123 140 140 141 147 171 168 170 170 169 163 157 148 126 93 61 47 50 48 30 27 50 87 87 76 61 52 47 44 46 50 55 58 62 63 65 65 64 55 59 84 122 133 135 134 130 129 125 110 302 295 288 281 272 263 256 253 284 348 359 0 358 353 349 344 340 337 336 339 345 354 358 357 347 337 330 325
146 145 145 144 145 146 139 136 139 151 171 180 181 180 176 166 154 153 156 153 148 140 128 113 93 70 45 21 3 0 20 95 99 93 76 55 37 25 17 27 36 40 41 49 52 53 50 44 42 50 84 115 131 139 143 153 190 251 271 273 270 263 253 241 228 216 203 355 0 357 354 348 342 335 329 327 328 333 344 353 0 359 351 339 333 330
143 142 146 154 163 168 166 166 169 176 187 190 186 172 148 138 131 124 117 120 118 111 106 108 105 100 88 52 17 353 325 111 117 108 93 69 42 18 352 354 13 30 25 48 60 53 41 34 30 31 44 65 101 133 151 178 220 248 258 259 255 248 236 221 208 195 175 101 1 350 346 338 331 324 319 323 328 336 347 356 0 356 347 337 333 332
155 157 163 171 177 180 182 182 185 186 185 171 142 110 101 118 131 139 135 133 131 126 120 115 109 102 105 95 52 350 298 216 155 140 130 99 62 25 339 323 327 46 35 72 83 67 41 29 14 355 0 355 22 164 175 203 229 244 247 247 241 232 219 203 190 178 165 166 339 338 334 325 319 317 318 326 337 346 354 359 359 354 346 337 334 332
166 169 175 181 183 184 185 189 189 183 162 137 126 132 139 148 154 156 148 144 143 145 150 149 149 154 177 142 126 111 285 225 170 155 154 129 85 37 340 324 321 63 55 77 86 71 43 23 0 327 303 284 253 224 211 218 228 237 238 235 229 218 203 190 180 174 172 188 241 295 309 311 314 317 325 338 347 355 1 1 358 353 347 338 334 332
173 179 182 184 185 183 176 184 177 156 133 131 136 148 154 157 157 153 146 144 148 155 165 167 168 172 183 170 153 150 229 220 177 151 154 140 97 46 348 333 328 10 9 59 74 58 28 5 349 316 276 261 246 232 221 224 229 232 233 228 220 209 195 185 179 179 183 194 211 231 249 292 312 324 331 342 349 355 0 358 355 349 343 338 334 330
182 185 184 187 183 176 163 167 156 133 133 139 139 135 125 127 134 140 144 150 157 164 170 173 173 170 167 176 164 151 172 210 174 146 150 150 113 61 2 341 331 321 302 280 81 62 20 345 309 277 255 252 245 236 228 228 230 231 231 226 218 206 194 188 185 183 184 191 197 202 197 215 283 314 326 332 338 344 348 347 343 338 333 336 338 337
191 192 191 190 179 166 161 172 169 162 160 158 152 142 131 124 129 140 148 157 163 167 166 171 172 171 164 164 138 125 150 217 178 147 156 162 126 74 12 347 336 312 275 243 70 57 17 328 300 290 282 270 257 244 234 232 233 234 234 229 220 209 196 190 185 181 176 178 188 195 186 191 208 244 273 291 302 310 315 311 304 304 317 335 344 348
192 198 201 184 166 160 173 184 183 176 171 164 156 150 148 151 155 157 156 158 156 153 154 165 168 168 166 132 110 105 127 214 167 142 153 162 127 72 19 355 346 295 255 210 67 44 350 318 299 288 278 269 255 242 233 233 236 239 241 236 225 212 198 189 182 175 169 172 183 192 189 195 206 228 245 258 265 273 281 284 289 296 307 324 336 346
194 202 205 185 171 172 183 187 184 176 166 154 149 148 153 156 162 165 162 156 150 147 148 163 158 147 149 130 118 108 69 203 155 134 132 145 70 63 45 8 341 283 240 151 88 58 323 302 290 281 272 263 253 243 235 238 241 245 247 239 227 212 196 188 181 175 171 174 186 197 201 208 219 232 244 253 260 267 273 279 287 296 304 310 316 321
196 201 197 191 189 187 181 173 169 166 160 155 156 159 162 166 170 172 169 166 163 159 149 130 103 86 91 99 97 87 354 294 173 134 124 171 241 188 91 33 312 273 241 120 73 34 303 291 281 279 280 279 270 257 250 248 249 250 248 239 225 209 195 187 182 179 178 184 195 207 215 221 227 233 241 250 258 266 272 280 287 293 299 301 302 304
198 193 179 187 194 193 159 149 152 158 162 164 166 167 165 170 172 171 169 165 156 140 114 98 88 82 79 84 84 75 4 317 307 124 126 180 203 163 98 79 245 223 218 87 38 345 301 293 289 293 299 306 299 284 269 260 254 249 243 233 219 204 193 188 185 185 187 195 204 214 221 225 228 232 235 242 249 257 266 273 279 285 290 293 295 296
199 183 167 177 179 169 125 134 144 151 156 150 137 117 104 115 119 122 125 123 118 113 111 111 106 96 85 92 93 84 27 340 328 349 129 174 173 128 85 52 252 219 163 83 41 342 307 301 303 317 318 323 318 306 288 270 256 246 235 223 210 199 191 188 188 190 197 206 215 222 227 229 230 232 233 235 239 245 251 259 266 273 280 283 285 286
192 173 162 163 161 156 146 145 147 148 145 131 116 103 95 92 90 89 90 97 106 116 125 123 119 109 95 106 111 110 49 357 334 329 131 159 155 115 88 38 290 240 128 84 52 335 297 294 345 3 347 339 333 323 304 277 255 238 225 211 200 191 186 184 186 192 206 221 230 235 237 236 236 235 233 234 235 238 240 246 251 258 265 270 273 275
164 156 151 150 151 152 151 149 149 149 146 139 133 126 120 114 109 106 107 115 127 134 135 132 129 130 126 142 159 164 139 158 253 277 147 139 136 128 117 106 279 280 289 73 44 334 295 326 33 25 8 350 337 328 316 286 252 225 207 196 186 178 172 171 175 189 220 247 256 257 253 247 243 239 236 235 235 236 239 242 246 250 255 259 263 266
134 136 139 143 147 149 149 148 148 148 146 143 141 139 135 130 126 125 132 145 150 149 144 143 142 140 136 159 168 159 143 158 181 210 235 147 133 133 131 135 243 280 281 59 49 356 316 5 15 8 0 348 336 334 338 328 291 211 182 172 165 158 152 150 149 159 263 286 285 279 271 259 250 243 239 237 236 236 239 241 245 248 250 252 255 258
118 125 132 138 143 146 146 146 146 146 146 144 144 144 144 140 140 145 158 161 157 150 146 146 145 146 157 171 163 141 146 177 181 182 196 202 164 134 120 115 79 288 266 115 76 55 9 7 358 346 335 331 332 343 354 360 9 39 110 132 137 137 135 129 118 83 2 327 312 301 290 276 263 252 243 239 238 238 239 242 244 246 246 245 244 245
101 112 122 130 136 139 140 141 143 145 145 146 147 148 147 144 148 154 160 157 152 147 148 147 144 142 148 149 128 117 181 189 176 170 174 187 174 124 112 110 95 310 252 124 112 110 110 84 49 357 319 333 345 352 353 5 15 27 42 72 97 109 110 100 82 53 21 350 330 316 306 293 281 268 256 248 244 242 243 243 244 244 243 239 238 240
80 89 98 110 118 124 130 135 140 143 144 144 143 141 134 128 132 141 147 149 149 149 150 147 142 134 130 116 109 149 201 176 165 163 173 178 164 128 123 124 113 325 273 155 145 146 147 123 113 99 29 0 2 2 356 6 14 19 21 35 61 83 87 76 63 45 25 1 340 324 313 302 293 283 272 263 256 252 250 249 248 245 235 231 228 227
81 81 78 80 84 91 100 113 126 133 134 131 126 118 102 99 110 124 137 146 147 147 147 148 146 143 139 134 144 170 190 158 157 162 176 173 152 128 137 135 118 2 296 266 176 158 146 135 128 117 68 32 21 17 11 14 15 12 3 8 39 71 76 65 54 40 25 5 346 329 316 306 298 290 282 274 268 263 260 258 255 249 228 214 215 221
93 90 86 79 75 73 75 77 87 99 108 105 99 93 93 101 111 122 136 143 142 138 138 141 144 146 149 150 160 167 150 137 154 165 172 160 134 115 132 126 117 100 306 313 312 198 137 134 128 115 50 26 26 24 20 19 18 10 355 348 27 63 65 54 44 33 20 4 347 333 321 311 302 294 287 280 273 268 265 263 260 253 230 212 220 231
102 97 93 89 83 77 75 77 80 83 87 84 82 83 89 101 111 119 128 133 133 131 133 137 140 143 145 139 136 123 101 128 157 168 170 154 134 124 132 125 123 125 119 349 347 359 52 96 107 86 330 330 357 21 26 28 27 20 354 336 349 57 51 37 26 15 3 354 343 332 326 319 310 299 289 281 275 269 265 262 259 253 238 220 223 232
109 106 101 96 90 84 80 82 86 90 92 90 90 90 91 99 107 113 117 116 120 126 133 140 145 149 151 143 136 135 122 143 161 168 171 157 139 130 137 136 138 138 137 112 63 48 58 68 73 334 289 274 225 144 100 47 29 19 346 312 309 356 25 9 0 350 344 339 329 323 331 327 317 306 294 283 275 269 264 261 258 255 249 232 222 224
112 110 107 106 104 102 99 97 98 100 100 97 95 95 97 100 105 110 113 107 104 105 116 133 143 150 154 154 158 164 159 156 164 170 172 164 150 136 135 149 153 150 146 142 138 129 118 112 119 137 164 248 200 165 132 128 159 245 240 254 258 267 301 325 332 330 325 312 296 296 327 329 324 315 302 289 281 276 274 270 267 264 260 248 237 226
118 118 118 120 123 123 121 120 118 115 111 103 99 98 99 101 103 103 103 100 98 97 94 92 100 117 140 150 159 160 154 151 162 169 174 170 159 144 136 155 161 160 151 149 148 147 136 132 127 124 133 215 207 176 135 142 179 210 210 214 215 214 212 211 244 290 296 280 277 281 321 325 327 320 309 310 310 307 303 296 290 283 276 268 260 248
137 138 140 136 136 137 136 134 132 131 128 120 111 104 100 97 96 94 89 82 83 89 96 89 81 71 67 81 119 137 135 145 158 168 174 169 164 153 135 149 162 167 162 154 150 147 140 140 141 146 179 208 215 205 146 121 199 215 203 206 215 219 202 178 175 203 247 256 266 279 297 307 316 314 309 325 332 332 326 319 310 300 294 288 281 272
158 158 154 151 148 146 144 145 145 145 140 133 122 110 99 95 93 91 88 77 72 75 89 92 86 75 66 64 63 78 108 139 155 166 171 168 166 157 134 139 158 174 178 158 149 147 149 157 163 171 186 206 222 233 234 310 277 248 241 255 254 248 226 181 173 187 218 241 254 264 271 286 297 306 307 323 329 328 326 323 315 309 307 301 292 284
170 168 166 165 161 155 151 150 148 143 136 127 119 112 103 98 93 90 88 84 77 73 76 84 86 80 68 65 68 79 94 127 150 163 167 169 170 166 144 142 151 162 164 150 144 149 158 173 183 187 183 192 207 216 220 247 256 265 286 282 262 235 203 179 175 184 203 227 253 265 266 277 289 285 283 294 303 310 314 314 312 312 316 308 293 281
173 172 172 170 165 156 152 136 129 127 127 122 117 113 110 104 98 95 94 93 89 85 82 84 85 84 74 67 65 66 71 99 133 154 161 172 177 177 165 151 148 147 145 143 150 165 174 185 195 202 199 192 186 188 192 202 209 231 272 278 271 241 204 190 183 179 185 206 239 254 254 241 239 242 244 251 274 294 302 299 296 294 295 286 275 268
175 174 173 166 153 131 107 101 108 118 126 126 126 125 127 125 121 117 112 106 100 97 100 104 104 100 94 81 68 56 43 44 84 119 102 168 183 187 184 160 147 141 142 147 159 183 195 199 206 212 216 224 241 252 248 234 238 251 268 273 275 276 270 249 213 164 166 192 214 232 238 230 229 238 260 273 277 278 282 279 275 271 265 248 243 244
178 175 167 152 138 125 113 111 114 119 125 129 135 140 145 144 143 142 138 133 127 122 123 137 139 138 137 129 113 92 63 25 12 61 96 122 167 193 199 176 155 144 143 147 160 189 211 214 217 220 222 230 244 256 259 255 251 252 257 266 278 286 283 264 204 125 182 184 193 209 228 234 256 280 296 297 292 280 269 262 260 258 252 236 227 230
174 163 145 135 131 129 129 125 124 126 130 134 138 141 142 146 149 149 144 141 140 137 130 135 144 149 152 153 146 128 101 64 24 6 117 140 169 196 211 194 173 159 155 155 162 181 210 222 227 227 226 229 241 254 264 263 258 252 248 255 266 276 280 247 151 141 192 191 191 199 216 239 269 290 298 294 287 276 265 258 256 255 255 241 226 222
150 131 122 124 125 126 126 130 135 140 143 144 142 138 133 139 142 140 132 133 134 133 123 118 121 127 134 152 155 142 112 93 81 72 100 179 184 190 206 201 191 182 179 178 175 170 169 206 222 227 224 229 238 248 257 261 262 257 249 244 244 246 250 247 197 163 196 210 208 207 213 243 276 290 289 280 274 267 258 254 253 254 256 248 238 231
130 126 129 132 135 139 143 147 149 148 149 147 143 137 134 138 139 135 125 127 128 129 124 131 133 130 137 158 175 170 143 122 116 113 114 153 167 174 183 191 197 200 201 201 198 192 186 198 206 209 208 219 232 241 249 255 258 259 254 244 242 244 248 251 252 250 251 255 254 249 233 234 276 284 281 273 266 259 256 257 257 256 252 245 239 235
137 140 144 147 151 156 159 156 152 148 149 147 142 137 136 141 139 133 127 125 125 127 140 142 150 156 168 167 168 179 195 155 138 127 122 124 135 151 168 180 191 201 211 215 216 216 217 212 200 191 195 216 230 237 241 245 250 253 254 247 246 249 253 252 251 251 255 263 268 269 254 183 242 265 274 276 277 273 266 262 262 262 259 249 241 237
152 153 155 157 160 160 159 154 151 152 156 154 149 142 140 144 144 136 124 121 123 127 137 141 159 172 178 169 166 169 180 174 161 151 144 142 141 143 151 170 181 191 209 220 227 232 238 235 225 215 215 227 236 239 239 237 241 245 250 249 249 250 253 251 248 245 246 255 259 255 168 193 239 260 270 277 279 277 269 261 258 257 258 253 247 241
162 160 160 161 161 159 157 156 158 162 165 161 154 147 148 158 158 151 129 133 136 141 146 154 172 186 191 184 181 183 186 183 175 163 154 151 149 149 150 154 161 169 185 205 222 232 239 239 235 231 229 234 241 246 245 240 239 242 246 248 249 251 253 253 248 240 233 243 244 233 200 225 247 264 275 279 277 273 268 263 257 253 251 250 248 245
165 163 162 162 162 162 162 163 166 170 171 165 158 152 155 170 171 164 143 152 158 162 168 175 183 192 199 200 199 199 202 199 191 176 162 151 149 149 148 146 147 148 152 172 199 221 235 237 232 229 227 231 238 246 251 247 245 244 247 248 249 252 256 257 252 240 228 226 216 204 208 232 248 261 276 279 278 275 274 273 268 261 254 249 247 246
169 166 163 163 165 166 166 167 170 174 174 169 163 157 156 164 169 164 150 161 172 179 185 188 191 196 203 203 201 199 202 204 206 206 193 158 150 152 152 151 151 151 153 161 175 198 223 233 230 226 224 225 229 235 244 246 246 246 247 246 246 248 254 258 256 245 229 220 201 189 202 222 235 244 254 264 269 271 273 271 269 267 262 254 249 248
173 169 166 167 169 170 169 170 173 176 176 172 165 158 155 160 164 164 161 174 183 190 195 197 198 202 206 205 202 200 200 201 205 207 199 166 153 157 162 163 166 171 176 179 181 188 203 223 228 226 223 219 220 222 230 234 237 240 243 242 241 244 250 255 256 251 244 235 211 187 191 209 221 229 236 249 260 267 268 265 263 263 262 256 253 253